GPS BIIF-10

Last updated on Sat Aug 15 2026 00:02:48 GMT+0000 (Coordinated Universal Time)

1 40730U 15033A 26226.05857007 -.00000004 00000+0 00000+0 0 9999 2 40730 53.9407 264.6967 0116026 30.3566 330.3795 2.00553226 81153
UTC large
Height (km)
Speed (km/s)
/
Latitude / Longitude
Inclination (degrees)
Orbital Period (minutes)
Azimuth
Elevation
Range (km)
Doppler Factor

Next 0 passes for location: London (51.5072 / 0.1276)

No passes found over London.
GPS BIIF-10